{"data":{"norad_id":47179,"epoch":"2026-05-25T04:05:02.078016Z","epoch_age_seconds":60575,"freshness":"FRESH","line1":"1 47179U 20088BK  26145.17016294  .00025511  00000+0  80232-3 0  9995","line2":"2 47179  53.1595 311.2383 0000870 345.2998  14.7978 15.32827088303482","mean_motion":15.32827088,"eccentricity":8.7e-5,"inclination_deg":53.1595,"raan_deg":311.2383,"arg_perigee_deg":345.2998,"mean_anomaly_deg":14.7978,"bstar":0.00080232,"rev_number":30348,"period_min":93.944060049127,"perigee_km":466.78670325104,"apogee_km":467.97782360287,"semimajor_km":6845.519263427,"source":"CELESTRAK","updated_at":"2026-05-25T13:38:16.523245Z"}}